Weather History for KDAG - July, 2013

Change the Weather History Date:

Sunday, July 21, 2013

  Actual Average Record
Temperature  
Mean Temperature 86 °F -  
Max Temperature 97 °F 103 °F 112 °F (1980)
Min Temperature 77 °F 74 °F 57 °F (1987)
Cooling Degree Days 21    
Growing Degree Days 36 (Base 50)    
Moisture  
Dew Point 64 °F    
Average Humidity 49    
Maximum Humidity 66    
Minimum Humidity 30    
Precipitation  
Precipitation 0.00 in - - ()
Sea Level Pressure  
Sea Level Pressure 29.78 in    
Wind  
Wind Speed 11 mph (East)    
Max Wind Speed 23 mph    
Max Gust Speed 34 mph    
Visibility 10 miles    
Events Rain , Thunderstorm    
Averages and records for this station are not official NWS values.
T = Trace of Precipitation, MM = Missing Value Source: NWS Daily Summary

Daily Weather History Graph

Daily Weather History Graph

Search for Another Location

Airport or City:

Trip Planner

Search our weather history database for the weather conditions in past years. The results will help you decide how hot, cold, wet, or windy it might be!

Date:

Astronomy

Jul. 21, 2013 Rise Set
Actual Time 5:49 AM PDT 7:57 PM PDT
Civil Twilight 5:20 AM PDT 8:26 PM PDT
Nautical Twilight 4:45 AM PDT 9:00 PM PDT
Astronomical Twilight 4:08 AM PDT 9:38 PM PDT
Moon 7:01 PM PDT (7/21) 4:39 AM PDT (7/21)
Length of Visible Light 15h 05m
Length of Day
14h 08m
Waxing Gibbous, 99% of the Moon is Illuminated
Jul 21
Waxing Gibbous
Jul 22
Full
Jul 29
Last Quarter
Aug 6
New
Aug 14
First Quarter

Hourly Weather History & Observations

Time (PDT) Temp. Heat Index Dew Point Humidity Pressure Visibility Wind Dir Wind Speed Gust Speed Precip Events Conditions
12:50 AM 88.0 °F 86.7 °F 57.0 °F 35% 29.74 in 10.0 mi East 8.1 mph - N/A   Scattered Clouds
1:07 AM 82.4 °F 83.9 °F 64.4 °F 54% 29.88 in 10.0 mi ENE 23.0 mph 34.5 mph N/A Thunderstorm Mostly Cloudy
1:50 AM 82.9 °F 84.6 °F 64.9 °F 54% 29.73 in 10.0 mi ESE 12.7 mph 25.3 mph 0.00 in Rain , Thunderstorm Light Rain
1:58 AM 82.4 °F 83.9 °F 64.4 °F 54% 29.84 in 10.0 mi East 13.8 mph - 0.00 in Rain Light Rain
2:50 AM 81.0 °F 82.7 °F 64.9 °F 58% 29.73 in 10.0 mi North 6.9 mph - 0.00 in   Clear
3:50 AM 78.1 °F - 64.0 °F 62% 29.74 in 10.0 mi WSW 3.5 mph - 0.00 in Rain Light Rain
4:50 AM 81.0 °F 81.9 °F 62.1 °F 52% 29.73 in 10.0 mi Calm Calm - 0.00 in   Clear
5:50 AM 81.0 °F 81.7 °F 61.0 °F 50% 29.73 in 10.0 mi West 4.6 mph - N/A   Clear
6:50 AM 77.0 °F - 64.9 °F 66% 29.75 in 10.0 mi East 4.6 mph - N/A   Clear
7:50 AM 80.1 °F 81.7 °F 64.0 °F 58% 29.78 in 10.0 mi ENE 5.8 mph - N/A   Clear
8:50 AM 81.0 °F 82.7 °F 64.9 °F 58% 29.79 in 10.0 mi NE 6.9 mph - N/A   Clear
9:50 AM 84.9 °F 85.9 °F 63.0 °F 48% 29.80 in 10.0 mi ENE 9.2 mph - N/A   Clear
10:50 AM 84.9 °F 85.9 °F 63.0 °F 48% 29.80 in 10.0 mi ENE 10.4 mph - N/A   Partly Cloudy
11:50 AM 89.1 °F 90.0 °F 63.0 °F 42% 29.80 in 10.0 mi ENE 12.7 mph - N/A   Clear
12:50 PM 91.9 °F 91.2 °F 59.0 °F 33% 29.78 in 10.0 mi East 10.4 mph - N/A   Clear
1:50 PM 95.0 °F 94.4 °F 59.0 °F 30% 29.77 in 10.0 mi East 12.7 mph 19.6 mph N/A   Clear
2:50 PM 95.0 °F 96.0 °F 63.0 °F 34% 29.77 in 10.0 mi ENE 12.7 mph 16.1 mph N/A   Mostly Cloudy
3:50 PM 93.9 °F 97.0 °F 66.0 °F 40% 29.75 in 10.0 mi East 19.6 mph 28.8 mph N/A   Clear
4:50 PM 91.0 °F 94.3 °F 66.9 °F 45% 29.74 in 10.0 mi East 16.1 mph 24.2 mph N/A   Clear
5:50 PM 91.0 °F 92.6 °F 64.0 °F 41% 29.74 in 10.0 mi East 13.8 mph - N/A   Clear
6:50 PM 90.0 °F 91.3 °F 64.0 °F 42% 29.76 in 10.0 mi East 9.2 mph - N/A   Scattered Clouds
7:50 PM 87.1 °F 89.2 °F 66.0 °F 49% 29.77 in 10.0 mi East 12.7 mph - N/A   Clear
8:50 PM 84.9 °F 87.1 °F 66.0 °F 53% 29.80 in 10.0 mi East 17.3 mph 23.0 mph N/A   Clear
9:50 PM 82.9 °F 84.6 °F 64.9 °F 54% 29.84 in 10.0 mi East 12.7 mph - N/A   Clear
10:50 PM 81.0 °F 83.3 °F 66.9 °F 62% 29.86 in 10.0 mi ENE 10.4 mph - N/A   Clear
11:50 PM 81.0 °F 83.3 °F 66.9 °F 62% 29.84 in 10.0 mi East 16.1 mph - N/A   Clear